Weather in Maksym

Ukraine / Chernihiv Region     51°11′49″N   30°56′24″E
temp.,
°C
wind,
m/s
gust,
m/s
humid.,
%
clouds,
%
prec.,
mm/h
press.,
hPa
HPBL,
m
18 may, tue
tue1800:00+13sw229578 0.0 100330
03:00+12ssw3494100 0.0 100369
06:00+13sse3496100 0.0 1003106
09:00+16sse3487100 0.0 1003361
12:00+19se2373100 0.0 1002720
15:00+20se3467100 0.8 1001890
18:00+19se457080 0.4 1000828
21:00+15se3689100 2.1 1000113
19 may, wed
wed1900:00+13se389699 0.0 1000223
03:00+11se389797 0.0 1000191
06:00+11se3897100 0.0 1001236
09:00+15sse348395 0.0 1002586
12:00+18sse4566100 0.1 10031222
15:00+19sse336362 0.7 10031184
18:00+18s116484 1.6 1003963
21:00+13wnw589593 3.6 1004221
20 may, thu
thu2000:00+12nw5796100 2.2 1004320
03:00+11wnw5894100 2.3 1004511
06:00+11wnw4897100 0.1 1005434
09:00+11wnw4796100 0.6 1005566
12:00+11wnw5991100 0.4 1007655
15:00+11wnw7128099 0.4 10091186
18:00+12nw7137374 0.0 10101216
21:00+9sw22869 0.0 101220
21 may, fri
fri2100:00+9wsw34895 0.0 101265
03:00+8wsw379449 0.0 1014122
06:00+8wnw3691100 0.0 1014116
09:00+13nnw3474100 0.0 1015484
12:00+16n3359100 0.0 10161160
15:00+17nne2252100 0.0 10161502
18:00+17ne2359100 0.0 10161097
21:00+11se3584100 0.0 1018101
22 may, sat
sat2200:00+9ne1186100 0.0 101811
03:00+8n33885 0.0 101828
06:00+9nne368883 0.0 1018143
09:00+14nne4775100 0.0 1017414
12:00+17ne5560100 0.0 1017954
15:00+19ne445830 0.0 10161370
18:00+18ne446519 0.0 10161115
21:00+13ene35911 0.0 101677